Lid_Strength_Index
8 9 9 8 8 9 9 9 10 9 9 7 6 7 6 6 6 6 6 5 4 4 3 3 3 2 2 1 1 1 1 1 1 0 0 0 0 0 -0 -0 0 -0 0 -0
10 9 8 9 8 8 8 8 8 8 9 6 6 6 6 6 6 6 6 5 4 4 3 3 3 2 2 2 1 1 1 1 1 0 1 1 0 0 0 0 0 -0 0 0
11 10 10 11 9 9 8 7 8 10 8 7 7 7 6 6 6 6 6 5 4 4 3 3 2 2 2 1 1 1 1 1 1 1 1 1 1 1 1 1 1 1 0 1
10 11 14 9 7 7 8 8 7 8 8 7 7 6 6 5 5 5 5 4 4 3 3 2 2 2 1 1 1 1 1 1 1 1 1 1 2 2 2 1 2 2 2 1
12 12 10 9 9 9 9 9 8 8 7 7 7 6 7 5 4 4 4 4 3 4 4 4 3 3 3 2 2 2 2 1 1 1 2 2 3 3 2 2 3 4 4 3
12 13 14 9 8 7 8 11 8 7 7 7 7 9 9 5 5 5 4 5 5 5 5 4 5 4 3 3 3 3 4 4 1 2 2 3 4 3 4 3 5 5 6 6
12 13 11 8 8 7 12 10 7 7 7 7 8 7 6 6 6 6 5 6 5 5 6 6 5 5 5 5 6 4 3 5 3 2 3 4 4 4 5 5 5 6 7 7
11 12 14 7 8 10 9 7 7 6 6 7 6 6 6 7 7 6 6 6 6 7 7 7 6 6 7 6 6 6 5 6 7 7 7 7 7 7 6 5 6 7 7 8
9 9 8 6 7 6 6 7 6 6 5 5 6 6 6 6 6 5 4 6 6 6 7 7 7 6 7 7 6 6 6 7 8 8 8 8 9 8 8 7 8 9 9 9
10 8 8 7 6 5 5 6 5 5 5 4 5 5 5 4 4 5 6 6 6 6 7 8 6 7 7 6 6 6 7 7 8 8 9 8 8 7 8 9 9 10 9 8
10 8 7 6 5 5 5 5 5 4 4 4 4 4 4 4 5 5 5 5 5 6 6 7 7 7 6 7 7 8 8 8 9 9 10 11 11 10 9 9 9 9 8 7
10 7 7 7 5 5 5 5 5 5 5 4 4 4 4 6 6 5 5 5 6 6 6 7 7 8 7 7 7 7 8 8 8 9 9 10 11 13 12 12 12 13 12 8
7 5 5 5 4 4 5 4 4 4 4 4 4 4 4 4 4 5 5 5 5 6 6 6 7 7 7 7 6 7 8 9 9 8 7 8 8 8 9 12 12 13 12 12
4 5 6 5 6 4 4 4 4 3 3 3 4 4 5 5 5 5 5 5 5 6 6 7 6 6 6 6 7 7 8 8 6 6 7 7 8 8 8 8 8 8 12 11
4 4 4 4 4 4 4 4 4 4 4 4 4 4 3 4 4 4 4 4 4 4 5 5 5 6 5 5 5 5 6 8 8 8 8 8 8 8 8 8 8 8 8 9
4 4 4 5 5 4 4 4 5 5 4 3 3 3 3 3 4 4 3 3 4 5 5 5 5 5 5 5 6 7 8 9 7 7 8 8 8 8 8 8 7 8 7 7
6 6 5 5 5 5 4 4 4 4 3 3 3 3 4 4 4 4 4 4 3 3 4 4 5 5 5 5 6 6 6 7 7 6 6 7 7 7 7 7 7 7 7 7
4 4 3 3 4 4 4 4 3 3 3 3 2 3 4 3 4 4 4 2 3 4 4 4 4 5 5 5 5 5 5 5 5 5 5 6 6 6 7 7 7 7 7 8
3 4 3 3 3 3 3 3 3 3 3 3 3 3 3 3 3 3 2 3 4 4 4 4 4 4 3 3 4 4 4 4 4 5 5 6 6 6 6 6 6 7 7 7
4 3 3 3 3 3 3 3 3 3 2 2 2 3 3 3 3 3 2 2 2 3 2 2 2 2 1 1 3 3 3 3 3 3 4 4 4 4 5 8 5 5 5 5
4 3 4 3 3 3 3 2 3 3 2 2 3 3 3 3 3 2 2 3 2 1 2 2 1 1 3 2 2 1 1 2 4 3 4 3 4 4 4 4 4 4 4 4
4 4 3 3 3 3 3 2 2 2 3 3 2 2 2 3 2 2 2 2 2 4 2 2 2 2 2 4 5 5 4 3 4 4 3 3 3 3 4 4 4 4 4 4
3 3 3 3 4 3 3 3 3 3 3 3 2 2 2 3 3 3 4 3 2 3 2 3 7 4 5 4 4 5 5 4 5 5 4 3 2 3 3 3 3 3 3 2
3 3 4 3 3 4 4 3 3 2 2 3 3 2 2 4 4 3 3 5 6 4 3 4 5 6 5 5 6 5 5 5 4 4 4 8 4 4 3 3 3 2 2 2
4 3 3 3 4 4 3 3 3 3 4 4 3 3 3 3 4 3 3 4 6 5 4 6 6 6 5 5 5 4 4 4 4 4 4 4 4 4 4 3 3 3 3 2
3 3 3 3 3 3 3 3 4 4 4 5 4 4 4 4 4 3 4 5 5 6 4 4 3 3 4 3 2 3 3 4 4 5 5 4 3 3 2 2 2 2 2 1
4 5 4 4 4 4 4 4 4 4 4 4 4 4 4 3 3 3 5 4 4 4 4 3 2 2 2 3 3 3 3 3 6 3 2 3 2 2 2 2 2 2 2 2